TimeEST,TemperatureF,Dew PointF,Humidity,Sea Level PressureIn,VisibilityMPH,Wind Direction,Wind SpeedMPH,Gust SpeedMPH,PrecipitationIn,Events,Conditions,WindDirDegrees,DateUTC
12:15 AM,45.0,25.7,47,29.91,10.0,NNW,8.1,-,N/A,,Scattered Clouds,330,2012-11-08 05:15:00
12:35 AM,45.0,24.4,45,29.91,10.0,NNW,9.2,-,N/A,,Mostly Cloudy,330,2012-11-08 05:35:00
12:55 AM,45.0,23.5,43,29.91,10.0,NNW,6.9,-,N/A,,Mostly Cloudy,330,2012-11-08 05:55:00
1:15 AM,45.5,22.6,41,29.91,10.0,NNW,8.1,-,N/A,,Mostly Cloudy,330,2012-11-08 06:15:00
1:35 AM,45.5,22.1,40,29.91,10.0,NNW,4.6,-,N/A,,Mostly Cloudy,340,2012-11-08 06:35:00
1:55 AM,45.3,22.1,40,29.91,10.0,NW,5.8,-,N/A,,Mostly Cloudy,320,2012-11-08 06:55:00
2:15 AM,45.1,22.1,40,29.91,10.0,NNW,5.8,-,N/A,,Scattered Clouds,330,2012-11-08 07:15:00
2:35 AM,45.0,21.2,39,29.91,10.0,NW,8.1,-,N/A,,Mostly Cloudy,320,2012-11-08 07:35:00
2:55 AM,44.8,21.0,39,29.91,10.0,NW,8.1,-,N/A,,Overcast,320,2012-11-08 07:55:00
3:15 AM,44.8,20.8,39,29.91,10.0,NW,11.5,-,N/A,,Overcast,310,2012-11-08 08:15:00
3:35 AM,45.0,21.0,39,29.90,10.0,NW,5.8,-,N/A,,Overcast,310,2012-11-08 08:35:00
3:55 AM,45.0,21.0,39,29.90,10.0,NW,10.4,16.1,N/A,,Overcast,310,2012-11-08 08:55:00
4:15 AM,45.0,20.7,38,29.91,10.0,NW,6.9,-,N/A,,Mostly Cloudy,320,2012-11-08 09:15:00
4:35 AM,44.8,20.8,39,29.91,10.0,NNW,6.9,-,N/A,,Scattered Clouds,330,2012-11-08 09:35:00
4:55 AM,44.8,20.1,37,29.91,10.0,NNW,6.9,-,N/A,,Clear,330,2012-11-08 09:55:00
5:15 AM,44.4,20.5,39,29.92,10.0,NNW,6.9,-,N/A,,Clear,330,2012-11-08 10:15:00
5:35 AM,43.9,20.5,39,29.92,10.0,NW,6.9,-,N/A,,Clear,320,2012-11-08 10:35:00
5:55 AM,43.2,21.2,42,29.92,10.0,NW,5.8,-,N/A,,Clear,320,2012-11-08 10:55:00
6:15 AM,42.8,21.4,43,29.93,10.0,NW,6.9,-,N/A,,Clear,310,2012-11-08 11:15:00
6:35 AM,43.5,19.9,39,29.94,10.0,NW,10.4,-,N/A,,Clear,310,2012-11-08 11:35:00
6:55 AM,44.1,19.4,37,29.94,10.0,NW,10.4,-,N/A,,Mostly Cloudy,320,2012-11-08 11:55:00
7:15 AM,44.2,19.0,37,29.95,10.0,NW,9.2,16.1,N/A,,Mostly Cloudy,320,2012-11-08 12:15:00
7:55 AM,46.9,18.9,33,29.96,10.0,NW,10.4,-,N/A,,Clear,310,2012-11-08 12:55:00
8:15 AM,47.3,19.4,33,29.97,10.0,NW,12.7,17.3,N/A,,Clear,310,2012-11-08 13:15:00
8:35 AM,46.9,18.3,32,29.97,10.0,NW,8.1,-,N/A,,Clear,310,2012-11-08 13:35:00
8:55 AM,47.1,18.5,32,29.98,10.0,NW,6.9,-,N/A,,Clear,320,2012-11-08 13:55:00
9:15 AM,48.9,18.5,30,29.98,10.0,NNW,4.6,-,N/A,,Clear,340,2012-11-08 14:15:00
9:35 AM,50.9,16.7,26,29.98,10.0,NNW,8.1,16.1,N/A,,Clear,340,2012-11-08 14:35:00
9:55 AM,50.2,12.2,22,29.99,10.0,NW,11.5,24.2,N/A,,Clear,320,2012-11-08 14:55:00
10:15 AM,50.9,12.7,22,29.99,10.0,NNW,9.2,18.4,N/A,,Clear,330,2012-11-08 15:15:00
10:35 AM,53.4,12.4,20,29.98,10.0,NNW,9.2,18.4,N/A,,Clear,330,2012-11-08 15:35:00
10:55 AM,54.9,11.3,18,29.98,10.0,NNW,10.4,23.0,N/A,,Clear,330,2012-11-08 15:55:00
11:15 AM,56.3,10.8,16,29.97,10.0,NNW,15.0,25.3,N/A,,Clear,330,2012-11-08 16:15:00
11:35 AM,55.9,10.0,16,29.97,10.0,NNW,12.7,23.0,N/A,,Clear,330,2012-11-08 16:35:00
11:55 AM,56.3,10.4,16,29.96,10.0,NNW,15.0,24.2,N/A,,Clear,340,2012-11-08 16:55:00
12:15 PM,57.7,10.9,16,29.96,10.0,North,13.8,24.2,N/A,,Clear,350,2012-11-08 17:15:00
12:35 PM,58.5,12.4,16,29.95,10.0,NNW,18.4,24.2,N/A,,Clear,330,2012-11-08 17:35:00
12:55 PM,58.1,11.3,16,29.95,10.0,NNW,17.3,24.2,N/A,,Clear,330,2012-11-08 17:55:00
1:15 PM,57.2,11.3,16,29.94,10.0,NNW,17.3,26.5,N/A,,Clear,340,2012-11-08 18:15:00
1:35 PM,59.0,13.6,17,29.94,10.0,North,15.0,19.6,N/A,,Clear,350,2012-11-08 18:35:00
1:55 PM,59.0,13.5,17,29.94,10.0,NNW,11.5,17.3,N/A,,Clear,340,2012-11-08 18:55:00
2:15 PM,60.1,14.7,17,29.94,10.0,NW,15.0,21.9,N/A,,Clear,320,2012-11-08 19:15:00
2:35 PM,59.2,12.6,16,29.94,10.0,NNW,19.6,27.6,N/A,,Clear,330,2012-11-08 19:35:00
2:55 PM,58.6,12.6,16,29.94,10.0,North,11.5,20.7,N/A,,Clear,350,2012-11-08 19:55:00
3:15 PM,58.5,13.1,17,29.94,10.0,NW,15.0,24.2,N/A,,Clear,320,2012-11-08 20:15:00
3:35 PM,58.3,13.5,17,29.94,10.0,NW,15.0,21.9,N/A,,Clear,320,2012-11-08 20:35:00
3:55 PM,57.6,12.4,17,29.94,10.0,NW,13.8,27.6,N/A,,Clear,320,2012-11-08 20:55:00
4:15 PM,56.7,12.7,18,29.95,10.0,NW,12.7,19.6,N/A,,Clear,320,2012-11-08 21:15:00
4:35 PM,55.8,12.7,18,29.95,10.0,NW,16.1,23.0,N/A,,Clear,310,2012-11-08 21:35:00
4:55 PM,54.5,13.3,20,29.96,10.0,NW,11.5,23.0,N/A,,Scattered Clouds,320,2012-11-08 21:55:00
5:15 PM,53.2,14.7,22,29.97,10.0,NW,9.2,18.4,N/A,,Clear,320,2012-11-08 22:15:00
5:35 PM,52.7,15.6,23,29.98,10.0,NW,9.2,-,N/A,,Clear,320,2012-11-08 22:35:00
5:55 PM,52.5,17.1,25,29.99,10.0,NW,10.4,17.3,N/A,,Clear,320,2012-11-08 22:55:00
6:15 PM,51.8,18.7,27,30.00,10.0,NW,12.7,18.4,N/A,,Clear,320,2012-11-08 23:15:00
6:35 PM,51.3,20.1,29,30.01,10.0,NNW,9.2,-,N/A,,Clear,330,2012-11-08 23:35:00
6:55 PM,51.3,21.2,31,30.01,10.0,NW,8.1,16.1,N/A,,Clear,320,2012-11-08 23:55:00
7:15 PM,51.1,22.3,32,30.02,10.0,NNW,6.9,17.3,N/A,,Clear,330,2012-11-09 00:15:00
7:35 PM,50.4,23.9,36,30.03,10.0,NNW,8.1,18.4,N/A,,Clear,330,2012-11-09 00:35:00
7:55 PM,50.2,24.6,37,30.04,10.0,NNW,6.9,16.1,N/A,,Clear,330,2012-11-09 00:55:00
8:15 PM,49.6,25.5,39,30.04,10.0,NNW,10.4,-,N/A,,Clear,340,2012-11-09 01:15:00
8:35 PM,48.7,26.4,42,30.04,10.0,NW,10.4,19.6,N/A,,Clear,320,2012-11-09 01:35:00
8:55 PM,48.4,26.6,43,30.05,10.0,NW,6.9,-,N/A,,Clear,320,2012-11-09 01:55:00
9:15 PM,47.5,27.3,46,30.05,10.0,NW,5.8,-,N/A,,Clear,320,2012-11-09 02:15:00
9:35 PM,47.5,27.5,46,30.06,10.0,NNW,5.8,-,N/A,,Clear,330,2012-11-09 02:35:00
9:55 PM,47.3,28.4,48,30.06,10.0,NNW,9.2,-,N/A,,Clear,330,2012-11-09 02:55:00
10:15 PM,47.7,29.1,49,30.06,10.0,NNW,10.4,17.3,N/A,,Clear,330,2012-11-09 03:15:00
10:35 PM,47.7,29.3,49,30.06,10.0,NNW,11.5,19.6,N/A,,Clear,340,2012-11-09 03:35:00
10:55 PM,47.3,29.8,51,30.06,10.0,NNW,5.8,-,N/A,,Clear,330,2012-11-09 03:55:00
11:15 PM,47.1,30.2,52,30.06,10.0,NW,9.2,-,N/A,,Clear,320,2012-11-09 04:15:00
11:35 PM,47.1,30.2,52,30.08,10.0,NNW,5.8,-,N/A,,Clear,340,2012-11-09 04:35:00
11:55 PM,46.4,30.6,54,30.08,10.0,NNW,9.2,-,N/A,,Clear,340,2012-11-09 04:55:00